FW7746 Weather Reports


Display with metric or nautical units.
time (UTC)temp
F
wind
direction
speed
MPH
gust
MPH
rain 1hr
in
rain 24hr
in
rain mn
in
humidity
%
barometer
mb
20260903062604 49 178 0.0 0.0 0.00 0.18 0.18 90 1009.1
20260903062104 49 178 0.0 0.0 0.00 0.18 0.18 90 1009.0
20260903061605 49 178 0.0 0.0 0.00 0.18 0.18 91 1009.2
20260903060104 49 178 0.0 0.0 0.00 0.18 0.18 90 1009.4
20260903055104 49 166 0.0 3.0 0.00 0.18 0.18 89 1009.3
20260903054604 49 182 0.0 0.0 0.00 0.18 0.18 89 1009.3
20260903054104 49 182 0.0 1.0 0.00 0.18 0.18 89 1009.2
20260903053104 49 236 1.0 3.0 0.00 0.18 0.18 88 1009.3
20260903052603 49 221 0.0 3.0 0.00 0.18 0.18 88 1009.2
20260903052103 49 156 0.0 2.0 0.00 0.18 0.18 88 1009.2
20260903051104 50 196 0.0 2.0 0.00 0.18 0.18 87 1009.1
20260903050604 50 200 0.0 1.0 0.00 0.18 0.18 87 1009.0
20260903050104 50 199 0.0 2.0 0.00 0.18 0.18 86 1008.9
20260903045604 50 173 0.0 2.0 0.00 0.18 0.18 85 1008.9
20260903045104 50 185 0.0 1.0 0.00 0.18 0.18 85 1008.9
20260903044604 50 169 0.0 1.0 0.00 0.18 0.18 85 1008.7
20260903044104 50 144 0.0 0.0 0.00 0.18 0.18 85 1008.7
20260903043604 50 143 0.0 1.0 0.00 0.18 0.18 85 1008.8
20260903041604 50 129 0.0 0.0 0.00 0.18 0.18 86 1008.3
20260903041104 50 129 0.0 0.0 0.01 0.18 0.18 87 1008.4
20260903040604 50 128 0.0 0.0 0.01 0.18 0.18 88 1008.3
20260903035604 49 130 0.0 0.0 0.01 0.18 0.18 89 1008.3
20260903035104 49 128 0.0 0.0 0.01 0.18 0.18 89 1008.2
20260903034105 49 127 0.0 0.0 0.01 0.18 0.18 89 1008.2
20260903033604 49 125 0.0 1.0 0.01 0.18 0.18 89 1008.1
20260903033104 49 130 0.0 1.0 0.01 0.18 0.18 89 1008.1
20260903032103 49 124 0.0 2.0 0.01 0.18 0.18 88 1008.1
20260903031606 49 158 0.0 0.0 0.01 0.18 0.18 88 1008.0
20260903031103 49 158 0.0 0.0 0.00 0.17 0.17 86 1008.1
20260903030604 49 175 0.0 0.0 0.00 0.17 0.17 86 1008.1
20260903030104 49 175 0.0 1.0 0.00 0.17 0.17 86 1008.0
20260903025604 49 201 0.0 1.0 0.00 0.17 0.17 86 1008.1
20260903024104 50 159 0.0 0.0 0.00 0.17 0.17 87 1008.0
20260903023603 50 157 0.0 1.0 0.00 0.17 0.17 87 1008.1
20260903023104 50 157 0.0 2.0 0.01 0.17 0.17 87 1007.9
20260903022604 50 127 0.0 1.0 0.01 0.17 0.17 87 1007.8
20260903022103 50 183 0.0 0.0 0.02 0.17 0.17 88 1008.0
20260903021603 50 182 0.0 1.0 0.03 0.17 0.17 87 1007.8
20260903021104 50 148 0.0 0.0 0.05 0.17 0.17 89 1007.6
20260903020603 50 150 0.0 3.0 0.06 0.17 0.17 88 1007.5
20260903020104 50 201 0.0 1.0 0.08 0.17 0.17 87 1007.8
20260903015604 51 225 0.0 1.0 0.08 0.17 0.17 87 1008.5
20260903015103 51 250 0.0 0.0 0.09 0.17 0.17 88 1008.7
20260903014604 51 248 0.0 0.0 0.10 0.17 0.17 88 1008.6
20260903014104 52 199 0.0 3.0 0.10 0.17 0.17 91 1008.7
20260903013104 52 145 0.0 0.0 0.09 0.16 0.16 89 1008.6
20260903012603 52 144 0.0 0.0 0.09 0.16 0.16 90 1008.6
20260903012104 53 149 0.0 1.0 0.08 0.15 0.15 90 1008.5
20260903011604 53 242 0.0 3.0 0.07 0.14 0.14 89 1008.5
20260903011104 53 254 0.0 0.0 0.05 0.12 0.12 89 1008.4
20260903010604 53 257 0.0 3.0 0.04 0.11 0.11 89 1008.3
20260903010104 53 95 0.0 0.0 0.02 0.09 0.09 88 1008.2
20260903005603 54 94 0.0 0.0 0.02 0.09 0.09 88 1008.0
20260903004604 54 83 0.0 2.0 0.00 0.07 0.07 85 1008.0
20260903004104 54 129 0.0 3.0 0.00 0.07 0.07 84 1007.9
20260903003604 54 163 0.0 3.0 0.00 0.07 0.07 82 1007.9
20260903003104 55 157 0.0 3.0 0.00 0.07 0.07 80 1007.9
20260903002604 55 174 1.0 3.0 0.00 0.07 0.07 79 1007.7
20260903002104 56 134 1.0 10.0 0.00 0.07 0.07 77 1007.8
20260903001604 56 172 1.0 5.0 0.00 0.07 0.07 76 1007.8
20260903001104 56 215 0.0 5.0 0.00 0.07 0.07 76 1007.7
20260903000604 56 159 0.0 5.0 0.00 0.07 0.07 75 1007.6
20260903000104 56 107 1.0 12.0 0.00 0.07 0.07 76 1007.5
20260902235604 56 138 1.0 6.0 0.00 0.07 0.07 76 1007.3
20260902235104 56 130 0.0 5.0 0.00 0.07 0.07 77 1007.3
20260902234604 56 163 0.0 3.0 0.00 0.07 0.07 77 1007.2
20260902234104 55 156 0.0 3.0 0.00 0.07 0.07 78 1007.2
20260902233104 55 120 0.0 3.0 0.00 0.07 0.07 80 1007.1
20260902232604 55 194 1.0 10.0 0.00 0.07 0.07 80 1007.0
20260902232104 55 149 0.0 5.0 0.00 0.07 0.07 80 1006.9
20260902231603 55 158 1.0 5.0 0.00 0.07 0.07 81 1006.8
20260902230604 55 123 0.0 2.0 0.00 0.07 0.07 81 1007.0
20260902230104 55 119 0.0 3.0 0.00 0.07 0.07 82 1007.0
20260902225603 56 150 0.0 0.0 0.00 0.07 0.07 82 1007.0
20260902225104 56 201 0.0 6.0 0.00 0.07 0.07 82 1007.0
20260902224604 56 172 0.0 2.0 0.00 0.07 0.07 82 1007.0
20260902223604 55 121 0.0 2.0 0.00 0.07 0.07 81 1006.7
20260902223104 55 208 0.0 2.0 0.00 0.07 0.07 82 1006.6
20260902222604 55 169 1.0 7.0 0.00 0.07 0.07 82 1006.4
20260902222104 54 198 1.0 3.0 0.00 0.07 0.07 83 1006.3
20260902221604 54 196 0.0 3.0 0.00 0.07 0.07 83 1006.2
20260902221104 54 166 0.0 3.0 0.00 0.07 0.07 84 1006.2
20260902220604 54 191 0.0 3.0 0.00 0.07 0.07 84 1006.1
20260902220104 54 219 1.0 6.0 0.00 0.07 0.07 82 1006.3
20260902215604 54 229 0.0 7.0 0.00 0.07 0.07 83 1006.3
20260902215104 54 186 0.0 2.0 0.00 0.07 0.07 83 1006.2
20260902214605 54 182 1.0 8.0 0.01 0.07 0.07 83 1006.3
20260902214104 54 150 0.0 5.0 0.01 0.07 0.07 83 1006.4
20260902213603 54 163 1.0 3.0 0.01 0.07 0.07 83 1006.5
20260902213104 54 207 1.0 5.0 0.01 0.07 0.07 83 1006.5
20260902212604 54 73 1.0 5.0 0.01 0.07 0.07 83 1006.5
20260902212104 54 158 0.0 2.0 0.01 0.07 0.07 84 1006.6
20260902211604 54 143 1.0 9.0 0.01 0.07 0.07 84 1006.5
20260902211104 54 156 0.0 3.0 0.01 0.07 0.07 85 1006.6
20260902210604 53 132 0.0 6.0 0.01 0.07 0.07 85 1006.5
20260902210105 53 214 0.0 3.0 0.02 0.07 0.07 85 1006.4
20260902205604 53 174 0.0 3.0 0.02 0.07 0.07 86 1006.4
20260902204604 53 120 0.0 3.0 0.02 0.06 0.06 86 1006.3
20260902204104 52 161 0.0 2.0 0.02 0.06 0.06 86 1006.3
20260902203604 52 170 0.0 1.0 0.02 0.06 0.06 86 1006.2
20260902203104 52 196 2.0 8.0 0.02 0.06 0.06 85 1006.2
20260902202604 52 101 1.0 5.0 0.02 0.06 0.06 86 1006.2
20260902202104 52 177 1.0 3.0 0.03 0.06 0.06 86 1006.3
20260902201603 51 160 1.0 5.0 0.03 0.06 0.06 87 1006.2
20260902201104 51 135 1.0 5.0 0.04 0.06 0.06 86 1006.4
20260902200104 52 217 0.0 3.0 0.04 0.05 0.05 86 1006.6
20260902195604 52 121 0.0 2.0 0.04 0.05 0.05 85 1006.6
20260902195104 52 145 0.0 2.0 0.04 0.05 0.05 86 1006.6
20260902194104 52 183 0.0 3.0 0.04 0.04 0.04 85 1006.6
20260902193604 52 162 0.0 3.0 0.04 0.04 0.04 86 1006.7
20260902193104 52 171 0.0 2.0 0.04 0.04 0.04 86 1006.7
20260902192604 52 160 0.0 3.0 0.04 0.04 0.04 85 1006.6
20260902192104 53 180 2.0 8.0 0.03 0.03 0.03 84 1006.7
20260902191104 53 120 0.0 3.0 0.02 0.02 0.02 84 1006.8
20260902190604 54 192 0.0 2.0 0.02 0.02 0.02 83 1006.8
20260902190105 54 230 0.0 3.0 0.01 0.01 0.01 82 1006.8
20260902185604 54 214 1.0 3.0 0.01 0.01 0.01 80 1006.8
20260902185103 55 128 0.0 1.0 0.01 0.01 0.01 78 1006.7
20260902184604 55 145 0.0 2.0 0.00 0.00 0.00 76 1006.7
20260902184104 56 136 0.0 1.0 0.00 0.00 0.00 74 1006.6
20260902183104 56 150 0.0 2.0 0.00 0.00 0.00 69 1006.5
20260902182604 57 134 1.0 3.0 0.00 0.00 0.00 68 1006.5
20260902181604 58 169 0.0 8.0 0.00 0.00 0.00 61 1006.4
20260902181104 58 174 3.0 12.0 0.00 0.00 0.00 57 1006.4
20260902180604 58 139 0.0 5.0 0.00 0.00 0.00 56 1006.3
20260902175104 58 232 1.0 5.0 0.00 0.00 0.00 57 1006.2
20260902174604 58 206 0.0 5.0 0.00 0.00 0.00 58 1006.2
20260902174104 57 137 0.0 3.0 0.00 0.00 0.00 58 1006.2
20260902173604 57 101 1.0 8.0 0.00 0.00 0.00 58 1006.2
20260902173104 57 169 0.0 5.0 0.00 0.00 0.00 58 1006.1
20260902172603 57 141 1.0 9.0 0.00 0.00 0.00 58 1006.1
20260902171104 57 205 1.0 6.0 0.00 0.00 0.00 60 1006.0
20260902170604 56 117 0.0 5.0 0.00 0.00 0.00 61 1006.0
20260902170105 56 120 1.0 10.0 0.00 0.00 0.00 62 1006.0
20260902165604 56 133 1.0 8.0 0.00 0.00 0.00 62 1005.9
20260902165104 56 150 2.0 5.0 0.00 0.00 0.00 62 1005.9
20260902164605 56 146 1.0 8.0 0.00 0.00 0.00 62 1005.9
20260902164104 57 180 1.0 3.0 0.00 0.00 0.00 63 1005.7
20260902163604 56 164 0.0 7.0 0.00 0.00 0.00 63 1005.8
20260902162604 56 132 0.0 3.0 0.00 0.00 0.00 65 1006.0
20260902162104 56 127 1.0 5.0 0.00 0.00 0.00 66 1006.0
20260902161604 56 138 1.0 5.0 0.00 0.00 0.00 66 1006.1
20260902161104 56 121 0.0 3.0 0.00 0.00 0.00 66 1006.1
20260902160104 55 161 0.0 3.0 0.00 0.00 0.00 67 1006.1
20260902155604 56 192 0.0 2.0 0.00 0.00 0.00 68 1006.2
20260902154604 55 199 0.0 0.0 0.00 0.00 0.00 69 1006.3
20260902153605 55 202 0.0 0.0 0.00 0.00 0.00 71 1006.4
20260902153104 55 214 0.0 1.0 0.00 0.00 0.00 71 1006.4
20260902152604 55 121 0.0 0.0 0.00 0.00 0.00 72 1006.6
20260902151604 54 218 0.0 2.0 0.00 0.00 0.00 73 1006.7
20260902151105 54 235 0.0 3.0 0.00 0.00 0.00 73 1006.7
20260902150604 54 222 0.0 3.0 0.00 0.00 0.00 73 1007.0
20260902150105 54 217 0.0 0.0 0.00 0.00 0.00 73 1007.0
20260902145604 54 217 0.0 2.0 0.00 0.00 0.00 73 1007.0
20260902145104 54 214 0.0 3.0 0.00 0.00 0.00 73 1007.0
20260902144604 54 189 0.0 1.0 0.00 0.00 0.00 73 1007.1
20260902144104 54 196 0.0 1.0 0.00 0.00 0.00 74 1007.1
20260902143604 53 85 0.0 2.0 0.00 0.00 0.00 74 1007.1
20260902143104 53 85 0.0 3.0 0.00 0.00 0.00 74 1007.1
20260902142104 53 181 0.0 0.0 0.00 0.00 0.00 75 1007.1
20260902141605 53 182 0.0 2.0 0.00 0.00 0.00 75 1007.1
20260902141104 53 173 0.0 0.0 0.00 0.00 0.00 76 1007.1
20260902140604 53 173 0.0 3.0 0.00 0.00 0.00 76 1007.2
20260902140105 53 148 0.0 0.0 0.00 0.00 0.00 76 1007.1
20260902135605 53 148 0.0 0.0 0.00 0.00 0.00 76 1007.2
20260902135104 53 120 0.0 0.0 0.00 0.00 0.00 76 1007.2
20260902134104 52 115 0.0 0.0 0.00 0.00 0.00 76 1007.2
20260902133604 52 113 0.0 0.0 0.00 0.00 0.00 77 1007.2
20260902133105 52 113 0.0 0.0 0.00 0.00 0.00 77 1007.2
20260902132604 52 113 0.0 0.0 0.00 0.00 0.00 78 1007.2
20260902132104 52 113 0.0 0.0 0.00 0.00 0.00 78 1007.2
20260902131604 52 113 0.0 0.0 0.00 0.00 0.00 78 1007.3
20260902131104 52 113 0.0 0.0 0.00 0.00 0.00 78 1007.3
20260902130604 52 113 0.0 0.0 0.00 0.00 0.00 78 1007.3
20260902130105 53 113 0.0 0.0 0.00 0.00 0.00 78 1007.4
20260902125605 53 113 0.0 3.0 0.00 0.00 0.00 78 1007.4
20260902125104 53 225 0.0 1.0 0.00 0.00 0.00 77 1007.4
20260902124604 53 235 0.0 2.0 0.00 0.00 0.00 77 1007.4
20260902124104 53 156 0.0 3.0 0.00 0.00 0.00 77 1007.4
20260902123604 53 151 0.0 0.0 0.00 0.00 0.00 76 1007.4
20260902123104 53 151 0.0 0.0 0.00 0.00 0.00 76 1007.5
20260902122104 53 151 0.0 1.0 0.00 0.00 0.00 76 1007.6
20260902121604 53 151 0.0 0.0 0.00 0.00 0.00 76 1007.6
20260902121104 53 151 0.0 0.0 0.00 0.00 0.00 76 1007.6
20260902120604 53 151 0.0 0.0 0.00 0.00 0.00 76 1007.6
20260902120105 53 151 0.0 0.0 0.00 0.00 0.00 76 1007.6
20260902115604 53 151 0.0 0.0 0.00 0.00 0.00 76 1007.7
20260902115104 53 151 0.0 0.0 0.00 0.00 0.00 76 1007.7
20260902114604 53 151 0.0 1.0 0.00 0.00 0.00 76 1007.7
20260902113605 53 151 0.0 0.0 0.00 0.00 0.00 76 1007.8
20260902113104 53 151 0.0 0.0 0.00 0.00 0.00 76 1007.7
20260902112104 53 151 0.0 0.0 0.00 0.00 0.00 76 1007.8
20260902111604 53 151 0.0 0.0 0.00 0.00 0.00 76 1007.8
20260902111104 53 151 0.0 0.0 0.00 0.00 0.00 76 1007.8
20260902110105 53 151 0.0 1.0 0.00 0.00 0.00 76 1007.9
20260902105605 52 151 0.0 0.0 0.00 0.00 0.00 77 1007.9
20260902105104 52 151 0.0 0.0 0.00 0.00 0.00 78 1007.9
20260902104605 51 151 0.0 0.0 0.00 0.00 0.00 78 1007.9
20260902104104 51 151 0.0 0.0 0.00 0.00 0.00 78 1008.0
20260902103604 51 151 0.0 0.0 0.00 0.00 0.00 78 1008.0
20260902103104 51 151 0.0 0.0 0.00 0.00 0.00 78 1007.9
20260902102604 51 151 0.0 0.0 0.00 0.00 0.00 78 1008.0
20260902102104 51 151 0.0 0.0 0.00 0.00 0.00 79 1008.0
20260902101604 51 151 0.0 0.0 0.00 0.00 0.00 79 1008.1
20260902101104 50 151 0.0 0.0 0.00 0.00 0.00 80 1008.1
20260902100604 50 151 0.0 0.0 0.00 0.00 0.00 80 1008.1
20260902100105 50 151 0.0 0.0 0.00 0.00 0.00 80 1008.2
20260902095605 50 151 0.0 0.0 0.00 0.00 0.00 81 1008.2
20260902095105 49 151 0.0 0.0 0.00 0.00 0.00 81 1008.2
20260902093105 49 151 0.0 0.0 0.00 0.00 0.00 82 1008.4
20260902092604 49 151 0.0 0.0 0.00 0.00 0.00 81 1008.4
20260902092104 49 151 0.0 0.0 0.00 0.00 0.00 81 1008.3
20260902091605 49 151 0.0 0.0 0.00 0.00 0.00 81 1008.3
20260902091104 49 151 0.0 0.0 0.00 0.00 0.00 80 1008.3
20260902090604 49 151 0.0 0.0 0.00 0.00 0.00 81 1008.4
20260902090104 50 151 0.0 0.0 0.00 0.00 0.00 80 1008.5
20260902085605 50 151 0.0 0.0 0.00 0.00 0.00 78 1008.5
20260902085104 50 151 0.0 0.0 0.00 0.00 0.00 78 1008.5
20260902084104 51 151 0.0 0.0 0.00 0.00 0.00 77 1008.2
20260902083604 51 151 0.0 0.0 0.00 0.00 0.00 77 1008.2
20260902083104 51 151 0.0 0.0 0.00 0.00 0.00 77 1008.3
20260902082104 51 151 0.0 0.0 0.00 0.00 0.00 76 1008.1
20260902081604 52 151 0.0 0.0 0.00 0.00 0.00 76 1008.0
20260902081104 52 151 0.0 0.0 0.00 0.00 0.00 76 1008.0
20260902075605 52 151 0.0 0.0 0.00 0.00 0.00 75 1007.9
20260902075104 52 151 0.0 0.0 0.00 0.00 0.00 75 1007.9
20260902074604 52 151 0.0 0.0 0.00 0.00 0.00 74 1007.9
20260902073104 53 151 0.0 0.0 0.00 0.00 0.00 74 1007.8
20260902072605 53 151 0.0 0.0 0.00 0.00 0.00 74 1007.8
20260902071604 53 159 0.0 0.0 0.00 0.00 0.00 74 1007.7
20260902070604 53 159 0.0 0.0 0.00 0.00 0.00 73 1007.6
20260902070105 53 159 0.0 0.0 0.00 0.00 0.00 73 1007.4
20260902065604 53 159 0.0 0.0 0.00 0.00 0.00 72 1007.5
20260902065104 54 159 0.0 0.0 0.00 0.00 0.00 71 1007.5
20260902064104 54 159 0.0 0.0 0.00 0.00 0.00 71 1007.7
20260902063604 55 159 0.0 0.0 0.00 0.00 0.00 70 1007.7
20260902063104 55 159 0.0 0.0 0.00 0.00 0.00 69 1007.8